Hourly Data Report for May 14, 2019

MIRAMICHI RCS
NEW BRUNSWICK
Current Station Operator: ECCC - MSC

47°00'34.000" N
65°27'54.000" W
33.00 m
8100989
71744
ACQ

Download Data

Hourly Data (May 2019)
Hourly Data Report for May 14, 2019
TIME
LST
Temp Definition
°C
Dew Point Definition
°C
Rel Hum Definition
%
Precip. Amount Definition
mm

Wind Dir Definition
10's deg

Wind Spd Definition
km/h
Visibility Definition
km
Stn Press Definition
kPa
Hmdx Definition


Wind Chill Definition


Weather Definition


00:00 1.9 0.0 87 0.0 5 7   101.54     LegendNANA
01:00 2.0 0.0 87 0.0 5 7   101.49     LegendNANA
02:00 1.6 0.1 90 0.0 3 9   101.45     LegendNANA
03:00 1.3 0.0 91 0.0 3 7   101.40     LegendNANA
04:00 1.4 0.5 94 0.0 2 5   101.39     LegendNANA
05:00 1.8 0.8 93 0.0 3 6   101.43     LegendNANA
06:00 2.8 1.6 92 0.0 4 9   101.41     LegendNANA
07:00 3.8 1.8 87 0.0 6 12   101.39     LegendNANA
08:00 6.4 2.5 76 0.0 7 18   101.37     LegendNANA
09:00 7.3 1.3 66 0.0 6 23   101.32     LegendNANA
10:00 8.9 0.5 56 0.0 6 23   101.30     LegendNANA
11:00 8.2 2.2 66 0.0 6 20   101.29     LegendNANA
12:00 9.2 0.1 53 0.0 6 27   101.24     LegendNANA
13:00 8.0 -0.3 56 0.0 6 27   101.17     LegendNANA
14:00 6.8 0.0 62 0.0 6 26   101.14     LegendNANA
15:00 6.3 -0.8 61 0.0 6 26   101.08     LegendNANA
16:00 6.1 -0.5 63 0.0 7 27   101.04     LegendNANA
17:00 5.6 -0.3 66 0.0 6 21   101.00     LegendNANA
18:00 5.7 0.1 68 0.0 7 16   101.01     LegendNANA
19:00 5.5 0.5 70 0.0 6 14   100.97     LegendNANA
20:00 4.3 1.2 80 0.4 10 22   100.92     LegendNANA
21:00 3.9 2.2 89 0.5 6 12   100.91     LegendNANA
22:00 3.8 2.3 90 0.2 5 15   100.85     LegendNANA
23:00 3.2 1.9 91 1.6 6 24   100.80     LegendNANA

Notes on Data Quality.

Legend

  • E = Estimated
  • M = Missing
  • NA = Not Available*
  • [empty] = Indicates an unobserved value
Date modified: